Change the Weather History Date:

Tuesday, April 3, 2012

  Actual Average Record
Temperature  
Mean Temperature 42 °F -  
Max Temperature 57 °F 48 °F 69 °F (2002)
Min Temperature 28 °F 31 °F 21 °F (2008)
Degree Days  
Heating Degree Days 22    
Moisture  
Dew Point 12 °F    
Average Humidity 32    
Maximum Humidity 51    
Minimum Humidity 17    
Precipitation  
Precipitation 0.00 in - - ()
Sea Level Pressure  
Sea Level Pressure 29.85 in    
Wind  
Wind Speed 6 mph (NNW)    
Max Wind Speed 20 mph    
Max Gust Speed 28 mph    
Visibility 10 miles    
Events      
Averages and records for this station are not official NWS values.
T = Trace of Precipitation, MM = Missing Value Source: NWS Daily Summary

Daily Weather History Graph

Daily Weather History Graph

Search for Another Location

Airport or City:

Trip Planner

Search our weather history database for the weather conditions in past years. The results will help you decide how hot, cold, wet, or windy it might be!

Date:

Astronomy

Apr. 03, 2012 Rise Set
Actual Time 6:31 AM EDT 7:20 PM EDT
Civil Twilight 6:03 AM EDT 7:48 PM EDT
Nautical Twilight 5:30 AM EDT 8:21 PM EDT
Astronomical Twilight 4:55 AM EDT 8:56 PM EDT
Moon 3:58 PM EDT (4/3) 4:20 AM EDT (4/3)
Length of Visible Light 13h 45m
Length of Day
12h 48m
Waxing Gibbous, 86% of the Moon is Illuminated
Apr 3
Waxing Gibbous
Apr 6
Full
Apr 13
Last Quarter
Apr 21
New
Apr 29
First Quarter

Hourly Weather History & Observations

Time (EDT) Temp. Windchill Dew Point Humidity Pressure Visibility Wind Dir Wind Speed Gust Speed Precip Events Conditions
12:15 AM 37.4 °F 33.8 °F 12.2 °F 36% 29.87 in 10.0 mi NW 4.6 mph - N/A   Clear
12:35 AM 39.2 °F 35.0 °F 12.2 °F 33% 29.87 in 10.0 mi NNW 5.8 mph - N/A   Clear
12:55 AM 37.4 °F 32.8 °F 10.4 °F 33% 29.87 in 10.0 mi North 5.8 mph - N/A   Clear
1:15 AM 33.8 °F 27.7 °F 10.4 °F 38% 29.87 in 10.0 mi North 6.9 mph - N/A   Clear
1:35 AM 33.8 °F 29.6 °F 12.2 °F 41% 29.87 in 10.0 mi NNW 4.6 mph - N/A   Clear
1:55 AM 33.8 °F 30.8 °F 12.2 °F 41% 29.88 in 10.0 mi NNW 3.5 mph - N/A   Clear
2:35 AM 32.0 °F - 10.4 °F 41% 29.87 in 10.0 mi Calm Calm - N/A   Clear
2:55 AM 30.2 °F - 10.4 °F 44% 29.87 in 10.0 mi Calm Calm - N/A   Clear
3:15 AM 28.4 °F - 12.2 °F 51% 29.87 in 10.0 mi Calm Calm - N/A   Clear
3:35 AM 28.4 °F - 12.2 °F 51% 29.87 in 10.0 mi Calm Calm - N/A   Clear
3:55 AM 33.8 °F 30.8 °F 12.2 °F 41% 29.87 in 10.0 mi NW 3.5 mph - N/A   Clear
4:15 AM 28.4 °F 24.6 °F 12.2 °F 51% 29.87 in 10.0 mi NW 3.5 mph - N/A   Clear
4:35 AM 33.8 °F 30.8 °F 15.8 °F 48% 29.87 in 10.0 mi WNW 3.5 mph - N/A   Clear
5:35 AM 33.8 °F 28.6 °F 15.8 °F 48% 29.88 in 10.0 mi NNW 5.8 mph - N/A   Clear
5:45 AM 33.8 °F 28.6 °F 15.8 °F 48% 29.89 in 10.0 mi NNW 5.8 mph - N/A   Clear
5:55 AM 33.8 °F 29.6 °F 15.8 °F 48% 29.89 in 10.0 mi NW 4.6 mph - N/A   Clear
6:45 AM 32.0 °F 27.5 °F 15.8 °F 51% 29.91 in 10.0 mi NNW 4.6 mph - N/A   Clear
7:45 AM 35.6 °F 31.7 °F 12.2 °F 38% 29.92 in 10.0 mi NW 4.6 mph - N/A   Clear
8:55 AM 39.2 °F 31.2 °F 12.2 °F 33% 29.92 in 10.0 mi NNW 13.8 mph 17.3 mph N/A   Clear
9:50 AM 42.8 °F 35.8 °F 10.4 °F 27% 29.90 in 10.0 mi NNW 13.8 mph 25.3 mph N/A   Clear
10:45 AM 44.6 °F 38.1 °F 10.4 °F 25% 29.89 in 10.0 mi NNW 13.8 mph 20.7 mph N/A   Clear
11:45 AM 46.4 °F 41.5 °F 12.2 °F 25% 29.87 in 10.0 mi NW 10.4 mph 23.0 mph N/A   Clear
12:45 PM 50.0 °F - 14.0 °F 24% 29.86 in 10.0 mi NNW 12.7 mph 27.6 mph N/A   Clear
1:45 PM 51.8 °F - 12.2 °F 21% 29.85 in 10.0 mi NNW 17.3 mph 27.6 mph N/A   Clear
2:45 PM 53.6 °F - 12.2 °F 19% 29.82 in 10.0 mi NNW 16.1 mph 27.6 mph N/A   Clear
3:45 PM 55.4 °F - 12.2 °F 18% 29.81 in 10.0 mi NNW 19.6 mph 27.6 mph N/A   Clear
4:50 PM 57.2 °F - 12.2 °F 17% 29.79 in 10.0 mi NNW 11.5 mph 20.7 mph N/A   Clear
5:45 PM 55.4 °F - 12.2 °F 18% 29.78 in 10.0 mi NNW 6.9 mph 16.1 mph N/A   Clear
6:45 PM 55.4 °F - 12.2 °F 18% 29.78 in 10.0 mi NNW 11.5 mph - N/A   Clear
7:45 PM 50.0 °F - 12.2 °F 22% 29.79 in 10.0 mi North 5.8 mph - N/A   Clear
9:15 PM 50.0 °F - 14.0 °F 24% 29.80 in 10.0 mi NW 3.5 mph - N/A   Scattered Clouds
9:35 PM 51.8 °F - 10.4 °F 19% 29.80 in 10.0 mi NNW 5.8 mph - N/A   Overcast
9:55 PM 51.8 °F - 10.4 °F 19% 29.79 in 10.0 mi WNW 4.6 mph - N/A   Mostly Cloudy
10:15 PM 51.8 °F - 10.4 °F 19% 29.80 in 10.0 mi NNW 6.9 mph - N/A   Overcast
10:35 PM 51.8 °F - 10.4 °F 19% 29.80 in 10.0 mi NNW 3.5 mph - N/A   Overcast
11:15 PM 51.8 °F - 10.4 °F 19% 29.79 in 10.0 mi Calm Calm - N/A   Overcast
11:35 PM 51.8 °F - 10.4 °F 19% 29.78 in 10.0 mi Calm Calm - N/A   Overcast
11:55 PM 51.8 °F - 8.6 °F 18% 29.77 in 10.0 mi Calm Calm - N/A   Overcast